TimeEDT,TemperatureF,Dew PointF,Humidity,Sea Level PressureIn,VisibilityMPH,Wind Direction,Wind SpeedMPH,Gust SpeedMPH,PrecipitationIn,Events,Conditions,WindDirDegrees,DateUTC
12:15 AM,39.2,26.6,61,30.52,10.0,East,10.4,16.1,N/A,,Clear,80,2013-04-23 04:15:00
12:35 AM,39.2,28.4,65,30.52,10.0,East,5.8,-,N/A,,Clear,90,2013-04-23 04:35:00
12:55 AM,37.4,26.6,65,30.51,10.0,East,3.5,-,N/A,,Clear,80,2013-04-23 04:55:00
1:15 AM,37.4,26.6,65,30.50,10.0,East,6.9,-,N/A,,Partly Cloudy,80,2013-04-23 05:15:00
1:35 AM,37.4,26.6,65,30.50,10.0,ENE,5.8,-,N/A,,Scattered Clouds,60,2013-04-23 05:35:00
1:55 AM,37.4,26.6,65,30.48,10.0,East,9.2,-,N/A,,Partly Cloudy,80,2013-04-23 05:55:00
2:35 AM,35.6,26.6,70,30.47,10.0,East,13.8,19.6,N/A,,Partly Cloudy,80,2013-04-23 06:35:00
2:55 AM,35.6,26.6,70,30.46,10.0,NE,9.2,17.3,N/A,,Scattered Clouds,50,2013-04-23 06:55:00
3:15 AM,35.6,24.8,65,30.45,10.0,ENE,8.1,-,N/A,,Clear,60,2013-04-23 07:15:00
3:35 AM,35.6,24.8,65,30.44,10.0,NE,9.2,-,N/A,,Clear,50,2013-04-23 07:35:00
3:55 AM,35.6,24.8,65,30.44,10.0,NE,6.9,-,N/A,,Clear,40,2013-04-23 07:55:00
4:15 AM,35.6,24.8,65,30.44,10.0,NE,9.2,-,N/A,,Partly Cloudy,50,2013-04-23 08:15:00
5:15 AM,35.6,26.6,70,30.41,10.0,ENE,8.1,20.7,N/A,,Overcast,60,2013-04-23 09:15:00
5:35 AM,37.4,26.6,65,30.41,10.0,NE,10.4,18.4,N/A,,Overcast,50,2013-04-23 09:35:00
5:45 AM,37.4,26.6,65,30.41,10.0,ENE,9.2,17.3,N/A,,Overcast,70,2013-04-23 09:45:00
5:55 AM,37.4,26.6,65,30.41,10.0,ENE,9.2,-,N/A,,Overcast,70,2013-04-23 09:55:00
7:45 AM,37.4,28.4,70,30.40,8.0,ENE,11.5,17.3,N/A,,Overcast,60,2013-04-23 11:45:00
8:45 AM,37.4,28.4,70,30.39,6.0,NE,13.8,19.6,N/A,,Overcast,50,2013-04-23 12:45:00
9:45 AM,37.4,30.2,75,30.38,6.0,ENE,9.2,19.6,N/A,,Light Drizzle,60,2013-04-23 13:45:00
10:55 AM,37.4,32.0,81,30.37,4.0,ENE,10.4,18.4,N/A,,Overcast,70,2013-04-23 14:55:00
11:45 AM,39.2,33.8,81,30.35,6.0,NE,13.8,19.6,N/A,,Overcast,50,2013-04-23 15:45:00
12:45 PM,41.0,33.8,76,30.33,7.0,ENE,13.8,19.6,N/A,,Overcast,60,2013-04-23 16:45:00
1:45 PM,42.8,33.8,70,30.29,8.0,ENE,5.8,-,N/A,,Overcast,60,2013-04-23 17:45:00
2:45 PM,44.6,35.6,71,30.27,10.0,NE,10.4,17.3,N/A,,Overcast,40,2013-04-23 18:45:00
3:45 PM,44.6,35.6,71,30.24,10.0,ENE,11.5,20.7,N/A,,Overcast,60,2013-04-23 19:45:00
4:45 PM,44.6,35.6,71,30.24,10.0,NE,12.7,20.7,N/A,,Overcast,50,2013-04-23 20:45:00
5:45 PM,42.8,35.6,76,30.22,10.0,NE,15.0,20.7,N/A,,Overcast,50,2013-04-23 21:45:00
6:45 PM,42.8,28.4,57,30.20,10.0,NE,11.5,19.6,N/A,,Overcast,40,2013-04-23 22:45:00
7:45 PM,42.8,33.8,70,30.18,10.0,NE,13.8,20.7,N/A,,Overcast,40,2013-04-23 23:45:00
9:15 PM,42.8,33.8,70,30.15,10.0,NNE,15.0,18.4,N/A,,Overcast,30,2013-04-24 01:15:00
9:35 PM,42.8,33.8,70,30.14,10.0,NE,13.8,21.9,N/A,,Overcast,40,2013-04-24 01:35:00
9:55 PM,41.0,33.8,76,30.13,10.0,NNE,16.1,27.6,N/A,,Overcast,30,2013-04-24 01:55:00
10:15 PM,41.0,35.6,81,30.13,10.0,NE,15.0,23.0,N/A,,Overcast,40,2013-04-24 02:15:00
10:35 PM,41.0,33.8,76,30.11,10.0,NE,17.3,21.9,N/A,,Overcast,40,2013-04-24 02:35:00
11:15 PM,41.0,35.6,81,30.11,10.0,NNE,18.4,24.2,N/A,,Overcast,30,2013-04-24 03:15:00
11:35 PM,41.0,35.6,81,30.10,10.0,NNE,17.3,23.0,N/A,,Overcast,30,2013-04-24 03:35:00